Theta_e
327 326 327 329 332 334 334 333 332 333 335 336 337 338 338 339 339 339 339 339 340 340 340 339 339 339 339 340 340 339 339 340 340 340 339 339 339 339 339 339 339 339 339 340 340 340 341 340 340 340 339 339 338 337 336 337 337 337 337 336 336 336 337 337 335 331 328 322 317 318 320 322 330 339 343 344 344 344 343 341 340 340 339 340 343
326 324 324 325 327 329 330 330 330 331 332 334 336 336 336 337 338 339 339 339 339 339 339 339 339 339 339 340 339 339 339 339 340 340 340 340 340 339 340 339 339 340 340 340 340 340 341 340 340 341 340 340 339 338 337 336 338 338 338 337 336 335 335 335 335 333 332 328 319 325 332 332 336 341 344 345 345 345 344 344 342 341 340 339 341
324 323 322 322 322 322 324 325 327 328 329 332 334 333 333 335 336 337 337 338 339 338 338 339 339 339 339 340 339 339 339 339 340 340 340 340 339 339 340 339 339 340 339 340 340 340 340 340 340 340 340 339 339 338 337 337 337 337 338 338 337 337 335 332 332 331 333 331 325 332 336 336 340 342 344 344 344 344 344 344 343 342 341 340 340
324 324 321 320 319 320 321 322 321 320 322 328 330 330 331 332 334 335 336 336 337 337 337 338 338 338 339 339 339 339 339 339 339 339 339 338 338 338 339 339 339 340 339 339 340 340 340 340 340 340 339 339 338 337 337 337 337 337 337 337 337 337 336 332 331 331 331 332 333 334 334 335 337 339 341 342 343 344 343 343 343 342 342 342 341
325 325 322 318 318 321 322 322 319 318 323 326 325 326 328 328 329 331 333 334 335 335 336 336 337 337 337 337 337 337 337 337 337 337 336 336 335 336 337 338 338 339 339 339 339 339 340 340 339 339 338 337 337 337 336 337 337 336 336 336 335 335 334 333 331 331 330 332 337 338 336 336 335 335 337 340 342 341 339 340 342 342 343 343 342
326 325 323 319 319 323 324 324 321 322 325 325 322 322 324 321 323 327 328 329 330 332 333 333 334 334 334 335 335 335 335 334 334 333 333 332 332 332 334 335 335 336 337 336 337 337 338 338 338 336 335 336 336 336 335 336 336 335 335 335 334 334 333 333 332 332 331 332 338 339 338 338 337 335 335 338 340 338 335 335 336 336 340 343 342
325 325 324 320 320 323 324 325 324 324 325 321 320 321 322 321 323 326 326 325 327 328 329 329 329 330 330 330 330 330 330 330 330 329 329 328 328 329 331 332 332 333 334 333 334 335 334 335 335 334 333 334 333 333 333 333 333 333 333 333 334 334 333 333 332 332 331 332 336 338 338 338 338 337 337 338 339 338 334 333 329 325 330 338 341
324 325 322 319 320 323 324 325 324 324 323 319 318 319 321 322 323 324 324 324 325 325 326 326 324 323 323 324 324 324 325 325 325 325 325 324 324 325 326 327 328 329 330 330 330 332 332 332 332 333 332 330 330 330 330 330 330 330 331 331 332 332 333 333 333 332 332 331 333 336 338 337 338 338 338 339 339 338 337 336 333 327 324 328 335
322 324 321 318 319 321 323 324 324 322 321 318 317 317 317 317 318 319 319 320 320 321 322 321 320 318 318 318 318 318 318 319 320 320 320 320 321 321 321 321 322 322 323 324 324 325 325 326 327 327 326 324 324 325 325 326 326 327 328 329 329 330 331 331 332 332 332 331 331 334 337 337 337 338 338 339 339 339 339 338 335 332 329 325 326
321 321 319 317 318 319 320 322 321 318 316 314 313 312 311 311 311 311 312 312 313 314 314 314 313 313 312 311 311 311 311 312 312 312 313 313 313 313 313 313 313 313 313 315 316 316 315 314 314 314 314 313 314 315 316 317 318 320 321 323 325 326 328 329 330 330 331 331 330 332 335 335 337 338 338 338 339 339 339 337 335 332 330 328 325
319 319 317 316 317 316 317 317 315 312 309 308 307 306 306 305 305 305 305 306 306 306 306 306 306 305 305 304 304 304 304 304 304 304 304 304 303 303 303 303 303 303 303 304 306 307 306 304 303 303 303 303 304 304 305 306 308 310 311 314 316 318 321 323 326 327 329 329 330 330 331 333 336 337 336 337 338 338 338 337 335 333 329 328 327
320 319 315 314 315 314 312 310 307 305 305 304 304 303 303 303 302 302 302 301 301 301 301 301 301 300 300 300 300 299 299 299 299 299 299 298 298 298 298 298 298 298 298 298 299 299 299 299 298 298 298 298 299 299 299 300 300 302 303 305 307 308 311 313 317 320 322 325 327 328 328 330 332 334 335 337 338 338 338 337 336 335 332 329 328
319 319 314 311 311 310 306 304 303 304 304 304 303 302 302 301 301 300 299 299 299 299 299 299 298 298 298 298 297 297 297 297 297 297 297 297 297 297 297 297 297 297 297 297 297 297 297 297 297 297 297 297 297 297 297 298 298 298 299 299 301 302 303 305 307 310 312 315 318 322 325 327 329 333 336 337 337 337 338 337 336 335 334 332 330
316 315 311 307 306 305 304 304 304 304 304 303 302 301 301 300 299 298 298 298 297 298 297 297 297 297 297 297 297 296 297 296 297 296 296 296 296 296 296 296 296 296 296 296 296 296 296 296 296 296 297 296 297 297 297 297 297 297 298 298 298 298 299 300 301 303 306 311 317 322 326 328 329 332 334 335 336 336 337 336 335 335 334 334 334
312 310 307 306 305 305 305 306 305 304 303 302 301 299 299 298 298 298 297 297 297 297 297 297 297 297 296 296 296 296 296 296 296 296 296 296 296 296 296 296 296 296 296 296 296 296 296 296 296 296 296 296 296 296 296 296 296 297 297 297 297 298 299 300 301 304 309 317 324 327 328 330 331 331 332 332 333 334 335 335 334 334 334 334 335
309 307 306 306 305 305 305 305 303 302 301 300 299 298 298 298 298 297 297 297 297 297 297 297 297 297 296 296 296 296 296 296 296 296 296 296 296 296 296 296 296 296 296 296 295 295 295 295 295 295 295 296 298 299 298 298 296 296 297 299 301 303 304 305 308 312 316 321 324 323 323 327 330 330 331 331 332 333 333 334 334 333 333 334 335
308 307 305 306 305 304 304 302 301 300 299 299 298 297 297 297 297 297 297 297 297 297 297 297 297 296 296 296 296 296 296 296 296 296 296 296 296 296 296 296 296 295 295 295 295 295 295 295 295 295 295 295 298 299 299 299 298 297 299 301 303 305 306 307 310 314 316 318 320 319 318 322 324 326 329 331 332 332 332 332 332 332 331 331 332
307 306 304 304 304 303 302 300 299 298 298 298 297 297 297 297 297 297 297 297 297 297 297 297 296 296 296 296 296 296 296 296 296 296 296 296 296 295 295 295 295 295 295 295 295 295 295 295 295 295 295 295 296 296 296 297 297 297 299 300 299 299 300 301 303 305 308 310 312 312 312 314 317 320 324 326 328 327 328 327 328 329 329 328 328
304 303 302 302 301 301 300 299 298 298 297 297 297 297 297 297 297 297 297 297 297 297 297 297 297 296 296 296 296 296 296 296 295 295 295 295 295 295 295 294 294 294 294 294 294 294 294 294 294 294 295 295 295 295 295 295 295 296 296 296 295 295 295 296 296 298 299 301 303 304 306 308 311 315 319 321 322 322 322 322 323 323 322 323 324
302 302 301 301 300 299 299 298 298 297 297 297 296 297 296 297 297 297 297 297 297 296 296 296 296 296 296 296 295 295 295 295 295 295 295 294 294 294 294 293 293 294 293 293 293 294 294 294 294 293 294 294 294 294 294 294 295 295 295 294 294 295 295 295 295 296 297 297 298 299 302 304 306 309 312 313 313 313 313 312 312 311 311 312 314
301 301 301 300 299 299 298 298 298 297 297 296 296 296 296 296 296 296 296 296 296 296 296 296 296 296 295 295 295 295 294 294 294 294 294 294 294 294 293 293 293 293 293 293 293 293 294 294 293 292 293 293 293 293 293 294 294 294 294 294 294 294 295 295 295 295 295 295 296 296 297 299 301 305 307 308 307 305 304 304 303 303 305 306 309
301 301 300 299 299 299 298 297 297 297 296 296 296 296 296 296 296 296 296 296 296 296 296 295 295 295 295 295 294 294 294 294 294 294 294 294 293 293 293 293 293 293 293 293 293 293 293 293 292 292 292 292 293 293 293 293 293 293 293 294 294 294 294 294 294 294 294 295 295 295 295 296 299 304 308 311 311 309 306 306 305 305 305 304 306
301 301 300 300 299 299 299 297 297 297 296 295 296 296 295 295 295 296 296 296 296 295 295 295 295 295 295 295 294 293 293 294 293 293 293 293 293 293 293 293 293 293 293 293 293 293 292 292 292 292 292 292 292 292 292 292 292 293 293 293 293 293 293 293 293 293 294 294 294 295 295 295 297 301 307 310 311 311 310 309 309 310 309 306 304
300 301 301 300 299 299 299 297 297 297 296 295 295 295 295 295 295 295 295 295 295 295 295 295 296 295 295 295 295 293 293 293 293 293 293 293 293 293 293 293 293 293 293 293 293 293 293 292 292 292 292 292 292 292 292 292 291 292 292 292 292 292 292 292 292 292 293 293 293 294 294 294 295 299 305 308 309 310 310 311 311 311 312 311 308
300 300 300 300 300 299 299 298 297 297 296 295 295 295 295 295 295 295 295 295 295 295 295 295 296 295 295 295 295 294 294 294 293 293 293 293 293 294 294 293 293 293 293 293 293 293 292 292 292 292 292 292 291 291 291 291 291 291 291 291 291 291 291 291 292 292 292 292 293 293 293 293 294 297 301 305 308 308 310 310 311 311 312 313 313
301 300 300 300 300 299 299 298 297 297 296 296 296 295 295 295 295 295 295 295 295 295 295 295 295 295 295 296 296 295 294 294 294 294 294 294 294 294 294 294 294 294 293 293 293 293 292 292 292 292 292 291 291 291 291 290 290 291 291 291 291 291 291 291 291 291 291 292 292 292 293 293 293 295 297 302 306 308 309 310 310 311 311 312 314
301 301 300 300 300 300 299 299 298 297 296 296 296 295 295 295 295 296 296 295 295 295 295 295 295 295 296 296 296 296 295 295 295 294 294 294 295 295 295 295 294 294 293 293 293 292 292 292 292 292 292 291 291 291 291 290 290 290 291 291 291 291 291 291 291 291 291 291 292 292 292 292 293 293 295 300 304 306 308 309 310 311 312 313 313
302 301 301 300 300 300 299 298 298 297 296 295 295 295 295 295 295 295 296 296 296 296 296 295 295 295 296 296 296 296 296 296 295 295 294 294 295 295 295 295 294 294 293 293 292 292 292 292 292 292 291 291 291 291 291 291 290 290 290 291 291 291 290 290 291 291 291 291 291 291 291 292 292 293 295 299 302 304 306 307 309 310 311 312 312
302 302 301 301 300 300 299 299 298 297 296 295 295 295 295 295 295 296 296 296 296 296 295 295 295 295 295 296 296 296 296 296 296 295 295 294 295 294 294 294 293 293 292 292 292 292 291 292 292 292 291 291 291 291 291 291 290 290 290 290 290 290 290 290 291 291 291 291 291 291 291 291 292 292 294 297 300 302 304 306 307 309 310 310 310
302 302 302 301 301 300 299 299 298 297 295 295 295 296 296 296 295 295 296 296 296 296 295 295 295 295 295 296 296 296 296 297 296 296 295 294 294 294 294 293 293 292 292 292 292 291 291 291 291 291 291 290 290 290 290 290 290 290 290 290 290 290 290 290 291 290 290 290 291 291 291 291 292 292 293 294 297 300 302 304 305 306 308 309 310
303 302 302 302 301 300 300 299 298 297 295 295 295 296 296 296 296 295 296 296 296 296 295 295 295 295 295 296 296 296 296 296 296 296 295 295 294 294 294 293 293 292 292 292 291 291 291 291 291 290 290 290 289 289 289 289 289 289 289 290 290 290 290 290 290 290 290 291 290 291 291 291 291 292 292 293 296 298 300 302 303 304 305 306 308
303 303 302 302 301 301 300 299 299 297 296 296 296 297 297 296 296 295 296 296 296 296 295 295 295 295 295 296 296 296 296 296 296 296 295 294 294 293 293 293 293 292 292 292 291 291 291 290 290 290 289 289 289 288 288 289 289 289 289 289 289 290 290 290 290 290 290 290 290 291 291 291 292 292 293 293 294 295 297 300 301 302 304 305 306
303 303 302 302 302 301 300 300 299 298 296 296 296 297 297 296 297 296 295 296 296 295 295 296 295 295 295 295 296 296 296 295 295 295 295 294 294 293 293 292 292 292 292 291 291 291 290 290 290 289 289 289 288 288 288 289 289 289 289 289 289 289 289 289 290 290 290 290 290 290 291 292 292 293 293 294 294 294 295 297 299 301 303 304 305
303 303 302 302 302 301 301 300 299 298 297 297 297 298 297 296 296 295 295 295 295 295 295 296 295 295 295 295 296 296 295 295 295 295 294 294 293 293 293 292 292 291 291 291 290 290 290 290 290 289 289 288 288 288 288 288 289 289 289 289 288 289 289 289 289 290 290 290 290 291 291 292 293 293 294 294 294 294 294 295 297 300 302 302 302
303 302 303 302 301 301 301 300 299 299 297 297 298 298 297 296 296 295 295 295 294 295 295 295 295 295 295 294 295 295 295 294 294 294 294 293 293 292 292 291 291 291 291 291 291 290 290 289 289 289 288 288 287 287 287 288 288 289 289 289 288 288 288 289 289 289 290 290 291 292 293 293 294 294 294 294 294 294 295 295 296 298 300 300 300
304 303 302 302 301 301 301 300 299 299 298 297 297 298 297 297 296 295 295 294 294 294 294 295 294 294 294 294 294 295 294 294 294 294 293 293 292 292 291 291 291 291 291 290 290 290 289 289 288 288 287 287 287 287 287 287 287 288 288 288 288 288 288 289 289 289 290 291 292 293 294 294 294 294 294 294 294 295 295 295 295 297 298 298 297
305 303 302 301 301 300 300 300 299 299 298 298 297 297 297 297 296 295 295 294 294 294 294 294 294 293 293 293 293 294 294 293 293 293 293 292 292 291 291 291 291 291 291 290 290 290 289 289 288 287 286 286 287 287 287 287 287 288 288 288 288 288 288 289 289 289 290 291 292 293 293 293 294 294 295 295 295 295 295 295 295 296 296 295 293
305 303 302 302 301 300 300 299 299 299 298 297 297 297 297 297 296 295 295 294 293 293 293 294 293 293 293 293 293 293 293 293 293 293 292 292 292 291 291 291 291 291 291 290 290 289 289 288 287 286 286 286 286 286 286 287 287 287 288 288 288 288 289 289 289 289 290 291 292 292 293 293 293 294 294 295 294 292 292 292 294 295 294 293 291
306 304 303 302 301 300 300 299 299 298 298 297 297 297 297 297 296 295 295 294 293 293 293 293 293 293 293 293 293 293 293 293 292 292 292 292 292 291 291 291 291 291 290 290 290 289 288 288 287 286 286 286 286 286 286 286 287 287 287 287 288 288 288 288 289 289 290 290 291 291 291 290 290 291 292 292 290 290 290 291 292 292 292 291 290
306 304 302 302 300 300 299 298 298 298 298 297 297 297 297 296 296 295 295 294 293 293 293 293 293 292 292 293 293 293 293 293 292 292 292 292 292 291 291 290 290 290 290 290 289 289 288 287 286 286 287 287 287 286 286 286 286 286 286 287 288 288 288 288 289 289 290 291 291 290 289 288 289 289 289 289 289 289 290 290 290 290 290 289 289
305 303 302 301 300 300 299 298 298 298 297 297 297 297 296 296 295 295 295 294 293 293 293 293 292 292 292 292 292 293 293 292 292 292 292 292 291 291 290 290 290 290 289 289 289 288 287 287 286 286 287 287 287 286 286 286 286 286 286 286 287 287 288 288 289 290 290 290 289 288 288 288 288 288 288 288 288 288 288 289 289 289 289 288 288
304 303 302 301 300 300 299 299 298 297 297 297 297 296 296 296 295 295 294 294 293 293 293 293 293 292 292 292 292 292 292 292 292 292 292 291 291 290 290 289 289 289 289 288 288 287 287 286 286 286 287 286 286 286 285 285 286 285 285 286 287 287 287 289 289 289 289 288 287 288 288 287 287 287 287 287 287 287 288 288 288 288 288 288 288
303 302 302 301 300 300 299 299 298 297 297 297 297 296 296 296 295 295 294 294 293 293 293 293 293 292 292 291 291 292 292 292 292 292 291 291 290 290 289 289 289 289 288 288 287 287 286 286 285 286 286 286 286 285 285 285 285 285 285 287 288 287 288 288 288 287 287 288 288 287 287 287 287 287 287 287 287 287 287 287 287 287 287 287 287
303 302 301 301 300 300 299 299 298 297 297 297 296 296 296 295 295 295 294 294 293 293 293 293 292 292 292 291 291 291 291 291 291 291 291 290 290 289 289 289 288 288 288 287 287 286 286 285 285 285 285 285 285 285 285 284 284 285 286 287 286 287 289 287 285 286 287 287 287 287 287 287 287 287 287 287 287 287 287 287 287 287 287 287 287
302 301 301 301 300 300 299 299 298 297 297 296 296 296 296 295 294 294 294 293 293 293 293 292 292 292 292 291 291 291 291 291 291 291 290 290 289 289 289 288 288 288 288 287 287 286 286 285 285 285 285 285 285 285 285 284 284 284 286 286 286 288 288 285 284 286 287 286 286 286 286 286 286 286 286 286 286 286 286 286 286 286 286 286 287
302 302 301 301 301 300 299 299 298 297 297 296 296 296 295 295 294 294 293 293 292 292 292 292 292 292 292 291 291 291 291 290 290 290 290 289 289 289 288 288 288 288 287 287 287 287 286 285 285 285 284 285 285 285 285 284 283 284 284 285 286 286 286 285 285 286 285 285 285 286 286 286 285 286 286 286 286 286 286 286 286 286 286 286 286
302 301 301 301 301 300 299 299 298 298 297 296 296 296 295 295 294 294 293 293 292 292 292 292 292 292 291 291 291 291 290 290 289 289 289 289 289 288 288 288 287 287 287 287 287 287 286 285 285 285 284 284 284 284 284 284 283 283 284 284 284 284 284 285 285 285 284 284 284 285 285 285 285 285 285 285 285 285 285 285 285 285 285 285 285
302 301 301 301 300 300 299 299 298 298 297 296 296 296 295 295 294 294 294 293 293 293 292 292 292 292 291 291 291 291 290 290 289 289 289 289 288 288 288 287 287 287 287 287 287 287 286 285 285 284 284 284 284 284 284 283 283 283 283 283 283 283 283 284 284 284 284 284 284 284 284 284 284 284 284 284 285 285 285 284 284 284 285 285 285
302 301 301 300 300 300 299 298 298 297 297 296 296 296 295 295 294 294 293 293 293 293 292 292 292 291 291 291 291 290 290 289 289 289 289 288 288 288 287 287 287 287 287 287 287 286 286 285 285 284 284 283 283 283 283 283 283 283 283 283 283 283 283 283 283 283 283 283 283 283 283 283 283 283 283 284 284 284 284 284 284 284 284 284 284
302 301 300 300 300 299 299 298 298 298 297 297 296 296 295 295 294 294 293 293 293 293 292 292 292 291 291 291 291 290 290 289 289 289 288 288 287 287 287 287 287 287 286 286 286 286 286 285 284 284 283 283 283 283 282 283 283 283 283 282 282 282 282 282 282 282 282 282 282 283 283 282 282 282 283 283 283 283 283 283 283 283 284 284 284
301 301 300 299 299 299 299 298 298 298 297 297 296 296 295 295 294 294 294 293 293 292 292 292 291 291 291 291 291 290 290 289 289 289 288 287 287 287 287 287 286 286 286 286 286 286 285 285 284 283 283 282 282 282 282 282 282 282 282 282 282 282 282 282 282 282 282 282 282 282 282 282 282 282 282 282 282 282 282 282 282 283 283 283 283
Wind_Speed
4 5 7 6 7 8 8 8 8 8 8 8 9 10 11 12 13 13 13 12 12 12 11 11 10 10 9 8 8 8 8 8 8 8 9 8 8 7 7 6 6 5 5 5 5 5 5 5 5 5 6 6 6 7 8 9 10 10 10 10 10 11 11 11 11 12 12 12 10 9 9 8 7 7 8 8 8 8 9 10 9 9 9 9 8
7 6 7 7 7 6 6 6 7 8 8 8 9 9 9 10 11 11 12 12 12 12 12 12 12 13 12 11 11 11 11 10 10 11 11 10 9 9 9 8 7 6 6 7 6 6 6 6 6 6 6 6 6 6 7 8 9 10 10 10 11 11 10 10 11 12 13 14 12 11 12 12 9 8 9 9 9 9 9 10 10 9 9 9 9
8 6 7 8 8 7 6 5 6 7 8 9 9 8 9 9 10 9 10 11 11 11 11 11 11 12 12 13 13 13 12 12 11 12 11 10 10 10 11 10 10 9 9 8 8 8 8 8 8 8 7 7 7 6 6 7 8 9 9 10 11 11 10 10 11 12 14 14 12 12 14 14 11 10 10 9 10 11 11 10 9 10 9 9 8
7 6 7 8 9 8 8 7 7 7 7 7 7 8 8 8 9 9 9 10 10 10 10 10 10 10 10 11 12 11 11 11 10 10 9 9 9 9 10 11 11 10 10 10 10 10 10 10 9 9 9 8 7 6 6 7 7 6 7 8 8 9 10 11 12 12 13 13 12 12 13 14 14 12 12 12 10 10 11 10 9 9 9 8 8
8 8 8 9 10 10 9 8 8 8 7 7 6 7 6 6 7 7 7 8 9 9 9 9 9 9 9 9 10 9 8 8 7 6 5 4 4 4 6 6 7 7 8 9 10 11 10 10 9 7 7 7 7 6 6 6 5 5 5 6 6 7 9 11 12 12 12 12 12 13 13 13 13 11 12 12 11 11 11 10 9 10 9 9 8
11 9 8 9 11 12 11 10 9 9 8 7 6 6 6 5 6 7 6 6 8 9 9 8 8 8 8 7 7 6 6 7 6 4 2 2 1 1 2 2 2 3 4 5 6 7 7 6 6 5 5 5 4 4 4 5 5 4 5 6 7 8 9 10 11 11 11 10 10 12 14 13 12 9 9 10 10 11 11 10 10 11 10 9 8
13 11 9 10 11 13 11 10 10 10 8 7 7 7 7 6 8 9 8 8 9 9 9 8 8 7 6 7 5 5 6 7 6 5 4 3 3 3 2 2 3 4 4 3 2 2 3 3 4 5 5 4 4 5 5 5 6 7 7 7 8 8 9 10 10 10 10 8 7 10 13 13 12 10 9 9 8 9 11 11 11 10 10 9 9
14 13 11 11 12 13 11 11 11 10 9 8 8 8 8 9 9 10 9 10 10 10 9 9 8 6 6 6 5 5 5 6 6 6 5 4 4 4 3 3 4 6 6 5 3 1 1 3 4 6 7 7 7 8 8 8 8 9 10 9 8 9 9 9 9 9 9 8 7 7 9 11 12 11 10 9 7 7 10 11 12 11 10 9 9
15 13 10 11 12 13 11 11 11 10 9 8 8 8 8 7 8 7 7 8 8 8 8 8 7 6 6 5 5 5 5 5 5 4 4 3 4 4 4 4 4 5 5 5 5 3 3 4 4 6 7 8 8 9 9 9 9 9 10 9 9 9 9 9 9 9 9 8 7 5 5 7 9 11 11 10 8 7 9 12 14 13 11 10 8
16 13 12 12 12 12 11 11 10 9 8 8 7 7 7 6 6 6 6 6 6 6 6 5 5 5 5 5 5 5 5 4 4 3 3 3 3 3 4 4 4 4 5 5 6 6 5 5 5 6 7 7 7 8 8 9 9 9 10 10 9 9 9 9 9 9 9 8 7 5 4 5 6 8 9 11 10 10 11 14 14 13 13 12 10
16 14 14 14 13 12 12 11 10 9 8 7 7 6 6 6 6 6 6 6 6 6 5 5 5 5 5 5 5 5 5 5 5 4 4 4 4 4 4 4 4 4 4 5 5 6 6 6 6 7 7 7 7 7 7 7 8 9 9 9 10 10 9 9 9 8 9 8 8 6 6 6 5 6 7 9 11 12 13 15 15 14 13 13 11
17 15 16 16 15 13 13 11 9 8 7 7 6 6 6 6 6 6 6 6 6 5 5 5 5 5 5 5 5 6 6 5 5 5 5 5 5 5 5 5 5 5 5 5 5 6 6 6 7 7 8 8 8 8 8 8 8 8 9 9 9 10 10 9 9 8 8 8 8 7 7 6 6 6 7 8 10 11 13 14 15 15 14 14 13
20 17 16 16 16 14 13 10 9 8 7 7 7 7 7 7 6 6 6 6 6 6 6 6 6 6 6 7 7 7 7 7 7 7 6 6 6 6 7 7 7 8 8 8 8 7 7 8 8 8 8 8 8 9 8 8 8 9 9 9 9 9 10 9 9 8 8 8 7 7 6 6 6 6 7 8 9 9 10 12 13 14 15 15 13
23 20 17 16 16 14 13 12 11 10 9 8 8 8 7 7 6 6 6 7 7 7 7 7 7 8 8 9 9 9 9 9 9 9 8 8 9 9 9 9 10 10 11 11 11 11 11 11 10 10 10 10 10 9 9 9 9 9 9 9 9 8 8 8 8 7 6 6 5 5 5 6 7 7 8 9 9 8 9 11 12 13 14 14 13
24 22 19 19 18 16 15 14 13 12 10 9 8 8 7 7 6 6 7 7 8 8 9 9 9 9 9 10 10 10 10 10 10 10 10 10 10 10 10 10 11 11 12 12 12 13 13 13 13 13 13 12 12 11 11 10 10 9 9 9 8 7 7 6 5 4 4 4 5 6 6 6 6 6 7 8 9 9 10 10 12 12 13 13 13
22 20 20 21 19 18 17 15 13 12 11 10 9 9 8 8 8 8 8 8 9 9 10 10 10 10 10 10 10 10 10 10 10 10 10 10 10 10 10 10 10 11 11 12 12 12 13 13 13 13 13 13 13 13 13 12 12 11 10 10 9 8 7 5 4 4 4 4 5 6 5 4 4 6 6 7 9 9 10 10 11 12 12 12 13
20 19 21 21 20 18 17 15 14 12 11 11 10 10 10 10 10 10 10 10 10 10 11 10 10 10 10 10 10 10 10 10 9 9 9 9 9 9 10 10 10 10 10 11 11 11 11 12 12 12 13 12 13 13 13 13 13 13 12 11 9 8 7 6 5 4 4 3 3 3 4 4 4 6 7 7 8 9 9 10 11 12 12 13 13
20 19 20 21 21 19 17 16 14 14 12 12 12 12 12 12 12 12 12 12 12 12 11 11 10 10 9 9 9 9 10 9 9 9 9 10 9 9 10 10 10 10 10 11 11 11 11 11 11 11 11 11 11 12 12 13 13 13 12 11 10 10 8 7 5 4 3 2 1 2 4 4 5 6 7 8 9 10 11 11 12 12 13 13 14
21 20 19 20 21 19 19 17 16 16 14 14 14 14 15 14 15 14 14 13 13 13 12 12 11 11 10 10 10 10 11 10 10 10 10 11 11 10 11 12 11 11 12 12 12 13 13 12 12 12 12 12 11 12 12 12 13 13 13 13 13 12 11 10 9 7 5 3 2 2 4 5 5 7 8 9 11 12 13 14 14 15 16 16 16
21 21 20 20 20 20 20 19 19 18 17 17 16 16 17 17 17 16 16 15 15 14 14 13 13 12 12 12 12 12 13 12 12 12 12 12 12 12 13 13 13 13 13 13 13 14 14 14 14 14 13 13 13 13 13 13 13 13 13 14 14 13 13 13 12 11 9 7 6 4 4 5 5 7 9 10 11 13 14 15 16 17 17 18 18
23 23 22 22 21 22 22 22 21 20 19 19 18 18 18 18 18 17 17 16 16 16 15 15 14 14 14 14 14 14 13 13 13 13 13 13 13 13 14 14 13 13 14 14 14 14 15 15 15 14 15 14 14 14 14 14 14 14 14 14 14 15 15 14 13 12 11 10 9 8 7 7 7 9 9 10 11 12 13 13 14 15 15 16 16
26 25 24 24 24 24 23 23 22 21 21 20 21 20 20 19 18 18 17 16 16 16 15 15 15 15 14 14 14 14 13 13 13 13 13 13 13 13 13 13 13 14 14 14 14 14 14 15 15 15 15 15 15 15 16 16 15 15 15 16 16 16 16 15 14 14 13 13 12 11 10 9 10 11 11 11 11 12 13 13 13 13 13 14 14
29 29 28 27 27 26 25 25 24 23 23 22 22 21 21 20 19 18 17 16 16 15 15 14 13 13 13 13 13 13 12 12 12 12 12 12 13 13 13 13 13 14 14 14 14 14 14 14 15 15 15 15 15 16 16 16 16 16 16 16 17 18 17 17 16 15 15 14 14 13 12 11 11 11 12 12 12 12 13 14 14 14 14 14 14
35 34 32 30 29 28 26 26 25 23 23 23 23 22 21 21 20 19 18 17 16 16 15 14 13 13 13 12 12 12 11 11 11 11 11 11 11 11 12 12 12 13 13 13 13 13 13 13 14 15 15 16 16 16 16 15 16 16 16 16 17 18 18 18 17 17 17 16 15 15 14 14 13 12 12 13 13 13 13 13 14 14 15 14 14
36 33 32 32 31 29 28 28 27 25 24 25 24 23 22 22 21 20 19 18 17 17 16 15 14 13 13 12 12 11 10 10 10 9 10 9 10 10 11 12 12 12 13 13 13 13 13 13 13 14 15 16 17 17 16 16 17 16 16 16 17 17 18 18 18 18 17 17 16 16 15 15 14 14 13 14 14 14 14 14 13 14 14 14 15
31 34 35 34 33 32 30 30 29 27 25 26 25 24 24 23 22 21 20 19 18 17 17 15 14 14 13 12 11 11 9 9 8 8 8 7 8 8 10 11 11 12 13 13 13 12 13 13 13 14 15 16 16 16 16 17 17 17 17 17 17 18 18 18 18 18 18 17 16 16 15 15 15 15 14 15 15 15 15 15 14 14 14 14 15
33 36 37 36 35 34 33 32 31 29 27 26 25 25 25 24 23 22 21 21 20 18 17 16 15 14 12 11 10 10 8 8 7 6 6 6 6 7 8 9 10 12 12 12 12 12 12 12 12 13 15 15 15 16 17 17 18 18 18 18 18 19 19 19 19 19 19 18 17 16 15 15 15 15 14 15 16 16 16 16 15 15 15 15 15
34 36 37 37 37 36 35 34 32 30 29 28 27 27 25 24 24 23 22 21 21 20 18 17 15 14 13 11 10 9 8 6 5 4 4 4 5 6 7 8 10 11 11 12 12 12 12 11 12 13 14 15 15 16 17 17 18 18 18 18 19 19 20 20 20 20 20 19 18 17 16 15 15 14 14 15 16 16 16 16 16 16 16 15 15
34 36 37 38 38 38 37 36 34 32 31 31 30 28 27 26 25 24 23 22 21 20 19 18 17 15 14 12 11 9 8 6 5 4 3 3 4 6 7 8 9 10 10 11 11 11 11 11 12 13 14 15 15 16 16 17 18 17 18 19 20 20 21 22 22 22 21 20 19 17 16 15 15 14 14 14 15 16 16 16 16 16 15 15 15
37 37 37 39 39 39 38 38 36 34 34 33 32 30 28 28 27 25 24 23 22 20 20 19 18 17 15 13 11 10 9 7 6 4 3 2 3 5 6 8 8 9 10 10 11 11 11 11 12 13 14 15 15 16 16 17 17 17 17 19 20 21 22 23 24 23 22 21 19 18 16 15 15 14 14 13 14 15 15 15 15 15 15 15 15
37 37 39 40 39 40 40 39 38 36 36 35 34 32 30 29 28 27 25 24 23 22 21 20 19 18 16 14 13 11 10 8 7 5 3 2 2 4 5 6 7 8 9 10 10 10 10 11 11 12 13 14 15 15 16 16 17 17 17 19 21 22 23 24 25 24 22 20 19 18 17 16 15 14 13 12 13 13 14 15 15 15 15 15 15
37 40 40 39 40 41 41 40 39 38 37 37 35 34 32 31 29 28 27 25 24 23 22 22 21 19 17 16 14 13 11 10 8 7 5 3 1 2 3 5 6 7 8 9 9 9 9 10 10 11 12 13 14 14 14 15 16 17 18 20 21 22 24 25 25 23 22 20 19 18 17 16 15 13 12 11 12 12 13 14 15 15 15 15 15
39 41 39 40 41 41 41 40 39 39 39 38 36 35 34 32 30 29 28 27 26 24 24 23 22 20 19 17 16 14 12 11 10 8 6 4 2 1 2 3 4 5 7 7 8 8 8 9 9 10 11 12 13 14 15 15 16 18 19 20 21 23 24 25 24 23 21 19 18 18 17 15 13 12 12 12 13 14 14 14 14 14 14 15 16
38 38 39 41 41 41 41 40 40 40 40 39 37 36 35 33 32 30 29 28 27 26 25 24 22 21 20 18 17 16 14 12 11 9 7 5 3 1 1 3 4 5 6 6 7 8 8 9 9 9 10 12 14 14 15 16 18 19 20 21 22 24 25 25 24 22 20 18 17 16 15 13 12 12 12 14 14 15 15 15 15 14 14 15 16
36 38 42 42 41 41 41 41 41 40 40 40 38 37 36 35 33 32 31 30 28 27 27 25 24 22 21 20 18 17 15 13 11 10 8 6 4 2 1 2 3 4 4 5 6 7 8 8 8 9 11 12 13 13 14 16 18 20 22 23 24 26 27 25 24 22 18 16 13 12 12 11 12 12 13 14 15 15 15 16 15 14 14 15 17
38 39 41 40 40 41 41 41 41 41 41 40 39 37 36 35 34 33 32 31 30 29 28 27 25 24 22 21 19 18 16 14 12 10 9 7 5 3 1 0 1 2 3 4 5 6 7 7 8 9 11 12 13 13 14 17 19 21 22 23 25 27 26 25 24 20 16 13 10 9 10 11 11 12 13 14 15 15 16 16 16 15 14 15 18
40 40 40 40 41 41 41 41 41 41 41 40 39 38 36 35 34 33 32 32 31 30 29 28 26 25 24 22 20 19 17 15 13 11 9 7 6 4 3 2 1 2 3 4 5 6 7 8 8 9 10 11 12 14 16 18 20 22 23 25 26 27 26 25 22 19 15 10 7 8 9 10 11 12 13 14 15 16 17 16 16 15 14 17 20
40 39 40 41 41 41 41 41 41 40 40 40 39 38 36 34 33 33 32 31 31 30 29 29 27 26 25 24 22 20 18 16 15 13 11 9 7 6 5 3 3 2 2 3 4 5 7 8 9 9 9 10 11 14 17 19 21 23 25 26 28 26 23 23 20 16 11 9 8 7 8 10 12 13 14 15 16 18 18 17 16 16 17 19 20
39 39 40 41 40 41 41 40 40 40 40 39 38 37 35 34 33 32 31 30 30 30 30 29 29 27 26 25 24 22 20 18 16 15 13 11 9 8 7 5 4 3 3 3 3 5 7 7 9 9 8 9 11 14 17 19 22 23 25 27 27 23 21 21 16 10 8 9 6 7 13 17 17 17 16 17 18 18 17 16 16 18 19 20 19
39 39 39 40 40 40 40 39 40 41 40 39 38 37 35 34 33 32 31 31 31 31 30 30 29 29 28 26 25 24 22 20 18 16 15 13 11 9 8 6 5 4 3 3 3 5 6 7 8 9 10 11 12 15 16 19 22 23 24 26 24 20 20 18 10 6 5 3 6 16 23 20 17 16 16 16 17 16 15 15 17 18 19 19 19
37 38 40 41 41 41 41 41 41 42 42 42 41 40 39 37 35 35 35 35 34 33 32 31 30 30 29 27 26 24 23 21 19 18 16 14 12 11 9 7 6 5 4 3 3 4 5 6 7 9 11 12 13 14 16 18 18 20 23 23 22 18 17 13 4 1 2 9 19 24 19 15 17 17 14 15 16 16 15 16 17 18 19 21 21
36 39 41 41 41 42 43 43 43 44 45 45 44 43 43 41 40 39 39 38 37 36 35 34 32 31 30 28 27 25 24 23 21 19 17 15 13 12 10 9 7 6 4 2 2 3 4 5 6 8 9 10 13 12 14 14 12 16 16 15 16 13 12 7 4 4 18 24 20 12 13 20 22 16 14 16 17 17 19 19 20 21 22 22 22
38 39 41 41 42 43 44 44 44 45 45 45 45 44 43 41 39 38 38 37 36 37 36 35 33 31 30 29 27 26 25 24 22 20 18 16 14 13 11 9 8 6 4 3 2 2 4 4 5 7 7 9 11 10 11 10 11 15 11 6 7 7 7 4 4 27 32 18 10 13 22 24 19 16 16 20 21 21 22 23 23 23 24 24 23
35 37 39 41 43 44 45 44 44 45 45 45 45 42 40 38 35 33 35 34 33 34 32 31 32 31 30 29 28 28 27 25 23 21 19 17 15 14 12 10 9 7 5 4 3 3 4 4 5 5 6 8 9 9 10 11 11 11 6 2 2 3 4 4 18 36 25 11 17 24 24 20 18 20 21 23 24 25 26 25 25 25 25 25 25
35 39 41 43 44 45 45 45 44 45 45 44 43 41 38 36 32 28 29 28 27 29 30 30 32 32 32 32 31 30 28 26 24 22 20 18 16 15 13 12 10 8 7 5 4 4 4 5 5 5 5 6 8 8 11 12 11 7 3 3 2 1 2 6 16 19 14 22 31 25 20 21 22 23 26 26 26 27 27 25 25 26 26 26 26
36 40 43 45 44 44 45 44 44 44 44 43 43 41 39 38 35 31 31 29 26 31 35 36 36 36 36 35 33 31 29 27 25 23 21 19 17 16 14 13 11 9 8 6 6 5 5 6 5 5 5 5 7 9 12 14 12 8 3 4 4 6 7 9 8 6 11 20 20 20 23 25 25 26 26 27 28 29 25 23 26 27 27 28 28
37 39 41 43 43 43 44 44 44 43 43 43 43 42 41 40 40 38 37 36 33 35 38 39 39 39 37 36 34 32 30 28 26 24 22 20 18 17 15 13 12 10 9 8 7 6 6 6 6 6 5 5 6 10 13 15 14 9 4 5 9 11 12 10 5 5 10 8 5 17 26 24 24 25 26 29 30 26 23 24 28 29 29 30 29
36 38 39 42 42 42 43 43 43 42 42 43 44 44 43 42 41 39 37 38 37 36 37 37 38 38 37 36 35 33 31 29 27 25 23 21 19 18 16 14 13 11 10 9 8 7 7 7 7 6 6 7 8 10 13 13 13 11 9 10 11 12 13 14 13 10 7 6 8 13 20 22 20 23 29 31 27 24 26 28 29 30 32 32 31
34 37 39 40 40 40 40 41 42 42 42 43 45 46 45 43 41 39 37 37 36 34 35 36 36 37 36 36 35 33 31 29 27 26 24 22 20 18 17 15 14 13 12 10 9 8 8 8 8 7 7 8 9 11 13 13 13 13 13 13 12 13 13 15 17 14 8 9 10 8 13 20 18 21 28 28 24 25 28 29 30 31 32 32 32
33 36 37 37 38 38 39 41 42 42 43 44 45 46 45 43 42 41 39 36 34 32 32 33 35 36 35 36 36 34 32 31 29 26 25 23 21 19 18 16 15 13 12 11 10 9 9 8 8 8 8 9 10 11 12 13 14 15 15 13 13 13 12 9 10 11 9 9 10 10 14 17 16 18 23 25 25 26 28 30 29 30 30 30 31
31 33 34 36 38 38 39 41 42 42 43 44 45 45 45 44 43 43 41 38 36 34 33 34 35 36 36 36 36 35 34 32 31 28 26 25 23 21 19 17 16 15 14 12 11 10 9 9 8 9 9 10 10 11 12 14 15 16 15 14 15 14 12 11 11 13 10 8 10 11 16 22 23 22 21 23 25 26 28 27 25 28 29 28 28
Wind_Direction
147 162 147 121 114 101 95 100 102 102 101 94 89 91 91 92 91 91 89 86 87 88 88 89 90 90 90 93 100 98 94 92 90 89 86 83 78 73 68 64 58 52 44 44 46 43 41 42 41 41 42 38 30 18 13 21 25 23 23 20 19 20 19 19 25 32 32 26 21 21 20 15 16 26 29 20 8 357 348 345 350 360 5 8 11
147 149 154 144 143 130 112 106 105 104 103 98 96 100 99 100 98 98 98 94 90 89 88 89 89 86 88 89 91 91 90 89 88 86 82 81 82 77 67 63 61 54 50 48 47 52 54 56 55 49 47 43 39 28 11 13 23 22 18 15 14 12 13 12 15 25 30 29 31 42 41 34 32 34 30 20 8 5 2 351 347 354 3 5 2
155 147 155 151 150 149 143 134 121 114 109 100 100 107 103 100 101 106 110 105 98 97 94 91 94 94 94 93 92 92 90 87 86 86 85 89 92 88 78 70 64 57 56 55 53 57 59 62 63 60 53 45 41 35 23 17 19 19 16 13 12 8 6 8 11 18 25 30 41 52 46 37 34 36 31 14 2 8 10 1 351 349 357 4 360
161 149 152 153 147 141 143 143 134 132 124 108 109 115 107 102 102 103 103 102 103 106 105 102 109 110 107 105 100 99 98 97 97 95 95 98 97 95 90 83 73 64 61 58 57 61 62 61 59 62 59 52 47 38 35 27 17 10 13 11 8 4 1 4 9 13 19 30 43 48 43 36 28 29 27 11 4 14 12 3 356 350 350 357 0
161 152 151 149 142 134 133 131 128 128 116 109 127 132 124 117 111 110 104 99 101 103 102 103 107 107 107 106 98 96 99 100 105 104 101 99 94 96 101 98 83 72 71 64 62 64 65 64 59 67 68 56 54 51 49 39 20 357 353 346 344 347 349 353 1 7 13 25 39 38 36 31 18 13 22 15 5 3 2 359 357 355 352 352 351
163 164 164 154 140 130 127 122 120 118 107 111 137 146 144 135 119 116 117 114 108 98 91 96 99 99 99 98 94 91 88 82 81 73 51 29 21 71 106 119 91 74 82 68 65 63 62 66 52 54 64 53 41 41 45 35 15 352 346 332 329 336 339 343 350 357 7 21 35 35 30 24 13 5 13 12 359 346 348 353 354 351 348 349 345
170 179 183 165 142 130 126 122 120 116 114 129 142 142 133 119 108 101 105 112 109 98 90 93 94 100 97 95 102 96 89 79 71 66 53 34 39 61 77 81 64 57 51 44 59 58 30 11 345 350 13 23 8 5 4 2 355 347 353 351 341 339 338 338 342 346 357 10 20 29 27 17 7 360 356 360 356 343 348 354 357 354 345 341 339
176 187 183 160 145 134 127 126 124 121 123 136 140 134 123 111 105 100 99 100 100 98 93 91 92 106 106 101 106 98 92 84 76 72 69 60 59 63 68 72 69 64 58 53 58 63 359 341 319 318 335 353 353 352 351 350 348 344 348 351 348 343 338 337 339 339 345 352 355 10 19 12 3 359 355 359 355 337 347 353 356 358 353 343 333
178 188 180 161 151 140 131 130 127 129 131 135 136 132 129 121 118 116 111 107 105 105 100 97 97 104 107 108 109 106 106 99 93 86 83 75 66 57 55 54 55 61 60 53 43 31 5 350 337 328 336 345 346 344 345 344 343 342 341 341 342 339 336 334 335 335 337 340 343 346 348 357 3 4 358 358 349 330 341 347 347 349 352 351 340
179 186 183 170 156 149 143 137 136 142 144 143 142 139 137 135 134 131 127 125 123 122 118 114 108 104 102 107 106 107 106 103 103 94 86 75 68 59 50 47 45 48 50 47 40 30 14 6 357 348 346 344 343 341 340 339 337 335 334 333 332 332 331 330 330 329 330 331 334 330 315 324 345 356 352 349 342 334 340 342 344 345 347 351 349
179 182 176 168 160 158 157 153 155 156 157 156 150 145 142 140 138 135 133 131 130 130 129 125 119 113 103 101 100 98 93 90 89 81 75 67 61 59 56 52 48 45 46 46 42 33 19 13 4 358 355 353 350 347 344 341 335 330 329 327 324 325 325 325 326 327 326 326 328 324 316 313 320 329 333 340 337 333 338 339 343 348 347 346 349
179 179 169 168 167 166 168 166 167 165 165 161 154 152 149 145 142 140 139 136 137 134 130 126 120 114 107 104 101 101 99 97 95 91 85 77 73 68 64 58 55 52 49 46 41 34 21 15 9 3 359 358 358 357 354 348 341 335 332 328 325 324 323 323 322 324 326 326 329 330 326 318 314 320 327 335 333 332 334 333 339 346 347 345 344
181 181 173 175 173 172 174 171 170 172 172 167 164 162 159 157 152 148 144 141 140 137 132 126 120 116 112 112 109 109 107 106 103 100 95 90 84 75 70 63 59 55 53 52 47 43 36 32 26 21 16 12 9 6 2 359 354 347 343 338 333 329 325 326 325 325 327 329 333 335 334 324 312 317 323 324 325 329 329 328 336 341 344 346 344
183 184 181 180 179 177 173 173 174 175 177 176 175 170 168 164 158 151 144 141 137 133 130 126 123 119 116 114 111 110 106 104 99 95 90 83 78 71 67 60 56 54 51 50 47 47 43 41 38 37 35 32 30 26 23 17 11 5 1 355 349 342 332 330 332 334 338 346 357 1 8 357 329 313 305 306 317 323 321 324 331 335 338 340 342
184 181 182 182 181 178 174 176 177 179 184 184 183 178 174 168 161 152 144 140 134 131 129 126 124 120 117 113 109 105 100 97 92 89 84 78 75 70 66 60 56 52 49 47 45 44 41 41 40 40 39 39 41 40 40 37 34 29 25 22 18 12 2 355 353 355 9 35 56 50 36 12 344 326 305 294 302 310 314 319 324 328 331 332 334
187 180 181 183 182 179 176 179 183 188 190 189 186 179 175 169 162 155 149 143 136 133 129 125 124 120 118 113 108 103 97 94 89 87 83 79 77 73 71 64 59 55 52 48 44 43 41 41 40 41 41 42 44 41 41 42 43 45 47 47 45 42 37 39 41 48 57 65 66 50 32 9 352 353 334 305 300 302 309 316 321 323 322 325 327
191 186 184 185 185 183 182 186 192 195 193 191 186 179 175 169 163 159 153 148 141 136 132 127 125 121 119 115 111 106 101 98 95 92 89 86 81 80 78 72 67 62 58 55 50 48 44 44 42 42 41 44 47 44 41 42 43 47 53 53 54 50 45 48 47 47 43 42 48 22 360 348 347 353 341 322 316 310 312 315 316 316 313 314 315
193 193 189 188 187 188 189 193 199 199 196 191 185 179 174 169 164 160 155 151 146 141 138 134 130 126 122 117 114 111 109 106 105 104 102 99 94 92 90 85 80 74 71 68 63 59 55 53 49 46 44 45 46 45 44 45 44 47 50 48 46 43 41 44 42 38 27 4 332 303 310 318 324 339 331 314 310 309 309 306 306 306 305 306 307
194 196 192 192 190 192 194 197 204 200 196 190 184 178 171 168 164 161 158 154 151 148 145 142 139 136 132 128 125 121 118 116 115 113 111 107 101 100 97 92 86 83 81 76 72 68 63 60 57 54 51 48 47 46 44 43 43 44 44 41 38 38 40 42 44 47 44 34 5 318 314 317 315 327 327 310 301 301 300 298 298 299 299 299 299
193 197 195 197 194 196 198 199 203 199 193 187 182 176 170 167 164 163 160 157 155 153 150 147 146 143 141 138 133 127 121 118 116 112 110 106 102 99 94 90 87 83 78 75 72 66 61 57 54 52 51 50 49 47 45 43 41 40 38 37 36 36 38 39 40 42 42 40 31 14 354 339 329 328 325 315 304 300 299 297 297 298 300 299 296
193 198 199 201 198 199 200 198 200 196 189 183 180 176 171 168 166 164 161 159 157 155 153 150 149 148 145 139 130 122 118 116 114 109 106 101 97 91 86 83 78 74 71 68 65 62 58 53 49 48 47 47 47 47 45 43 40 38 35 35 34 33 34 34 35 36 35 33 28 22 15 8 360 350 344 337 325 317 313 310 307 305 305 303 302
192 195 200 202 202 201 200 198 197 193 186 181 180 176 172 170 168 165 162 160 157 155 153 150 151 147 140 134 124 116 115 112 106 100 95 90 86 80 76 73 67 64 61 58 57 56 55 52 48 45 43 43 44 43 41 39 37 35 31 30 30 30 29 29 29 29 28 26 23 19 18 16 10 4 357 353 346 338 333 330 326 320 315 309 305
192 195 198 201 204 202 200 198 198 192 185 182 181 178 174 171 169 167 164 162 159 155 152 152 151 139 132 131 121 113 109 103 95 90 86 82 78 74 69 64 60 57 53 51 50 48 49 49 47 43 41 42 41 39 38 36 32 30 27 26 25 23 22 22 22 22 20 19 18 16 15 14 11 7 356 350 347 341 338 336 334 330 327 321 314
196 197 196 198 203 202 200 199 200 195 185 184 183 180 176 172 171 169 166 165 161 158 154 154 150 137 134 132 120 111 107 100 96 91 86 82 77 71 65 59 55 52 48 45 44 43 42 41 42 41 39 38 38 38 37 32 29 28 25 23 20 17 16 15 14 14 13 12 12 11 10 9 7 1 350 343 341 338 338 336 334 333 331 329 325
199 197 196 197 200 202 201 198 201 199 189 187 185 182 178 174 174 172 170 169 165 162 158 156 152 144 140 135 125 118 115 108 103 97 89 82 76 68 61 55 49 47 43 39 38 38 36 35 37 38 36 36 35 35 35 31 27 27 24 22 18 14 12 10 9 8 7 5 4 5 3 3 1 356 347 340 337 336 335 334 332 332 331 331 330
200 199 199 200 201 202 202 200 202 201 194 193 189 185 182 179 178 176 175 172 170 166 161 159 155 151 148 143 135 129 126 119 111 103 93 82 73 63 55 49 42 40 38 34 32 33 32 32 33 36 38 35 34 35 34 29 24 23 22 19 15 11 9 6 4 2 1 359 358 359 357 355 354 351 346 338 333 333 332 331 332 331 330 331 330
202 203 202 201 202 202 204 203 203 202 197 195 192 188 186 184 183 182 180 177 175 171 167 164 160 159 156 151 146 140 136 130 120 110 98 83 71 59 50 44 36 33 31 28 27 29 28 29 32 36 37 34 33 33 31 28 23 19 16 16 13 9 6 2 1 359 357 355 354 353 350 348 346 343 341 335 331 331 329 330 331 332 331 330 330
202 203 203 202 203 203 204 204 204 203 197 195 194 191 189 187 187 187 185 183 181 176 172 169 165 164 162 160 158 152 149 143 134 121 101 85 68 57 47 40 35 31 28 24 24 25 24 25 29 33 34 32 29 27 27 25 20 15 13 12 9 5 2 359 358 356 354 352 350 349 347 346 343 340 337 331 329 329 330 331 331 332 332 331 331
202 203 202 203 204 204 204 205 205 203 198 195 195 194 192 190 190 191 188 188 187 180 175 173 170 169 169 169 168 165 166 162 156 143 113 86 66 54 43 39 36 33 28 22 21 21 19 20 24 30 30 27 25 23 21 20 17 13 9 7 5 2 359 356 355 353 351 348 346 347 348 347 345 343 339 332 330 330 330 331 334 334 334 334 334
206 204 202 203 204 203 204 205 205 202 198 196 196 196 195 194 193 193 191 191 191 184 180 178 176 176 176 175 176 175 178 177 173 166 139 95 63 50 39 40 35 30 27 20 19 14 14 16 19 25 24 22 22 16 13 13 12 9 6 5 2 359 357 355 353 350 348 346 346 346 347 347 345 344 342 339 334 331 332 333 335 336 336 336 336
205 204 204 203 202 202 204 205 205 202 199 198 198 197 197 198 196 195 195 194 193 189 185 184 181 181 181 181 184 183 186 187 182 180 164 133 72 49 38 40 31 26 22 16 14 8 10 13 16 22 19 16 15 10 7 5 4 5 4 1 359 358 357 354 351 350 348 348 346 345 345 345 345 345 344 345 339 336 336 334 335 336 336 338 337
204 204 204 201 200 201 202 204 204 202 200 199 199 198 199 200 198 196 196 197 196 191 191 190 184 185 186 186 189 189 191 191 187 187 178 169 117 58 39 41 31 21 17 13 10 5 9 10 13 19 13 9 9 6 3 359 1 1 360 358 358 356 354 352 351 351 350 348 346 345 346 346 348 352 354 357 354 351 344 334 333 335 337 339 339
205 205 203 200 201 201 200 202 203 203 201 200 201 200 201 201 200 199 198 199 197 194 196 195 188 187 189 190 193 194 192 192 192 189 183 181 167 113 39 47 34 19 18 13 7 3 4 2 7 12 7 6 5 1 359 359 359 357 357 354 352 352 350 349 350 351 350 347 345 344 346 348 353 1 5 6 2 358 352 342 336 334 336 338 338
204 201 201 201 201 200 199 200 201 203 202 201 202 201 202 202 201 200 198 201 199 196 199 198 194 191 192 193 196 198 192 191 195 192 189 187 183 194 55 55 38 27 20 8 2 357 355 356 0 2 2 2 358 356 355 355 355 354 354 350 349 348 345 346 349 351 349 345 346 348 352 355 358 1 1 0 357 355 353 350 343 335 334 336 336
203 199 201 201 199 199 198 199 200 203 202 201 202 203 203 202 201 200 199 201 199 198 201 200 197 194 195 194 197 200 194 192 195 194 193 190 191 202 134 61 41 27 9 0 356 351 352 354 353 354 358 355 349 351 352 351 350 350 350 349 348 345 343 345 346 347 347 347 355 1 3 1 358 355 353 351 347 347 348 349 346 334 330 332 333
204 201 200 198 197 198 198 198 199 201 202 201 202 203 203 202 202 201 201 201 199 200 202 202 199 197 197 197 198 200 197 196 195 195 195 191 194 198 195 84 39 6 351 352 350 349 349 348 351 352 348 343 341 347 351 348 345 345 346 346 345 344 342 343 343 345 346 350 7 19 11 360 348 341 338 338 338 339 339 340 340 333 328 328 329
206 202 198 195 195 196 197 198 199 200 201 201 201 203 203 203 203 202 201 200 199 201 202 203 202 198 198 199 199 200 200 199 196 197 195 193 196 200 213 220 258 314 332 340 345 348 342 343 352 346 333 330 337 346 350 347 343 341 341 342 344 343 342 343 343 339 339 349 14 14 359 347 336 329 325 325 327 328 327 328 330 329 325 320 323
205 202 199 197 195 195 196 198 199 199 199 199 199 201 202 202 204 203 201 200 199 201 202 203 203 201 200 199 199 200 201 199 197 199 197 198 200 204 218 222 243 276 304 324 340 342 339 345 344 335 324 329 342 351 350 345 340 338 340 342 344 343 342 344 340 334 338 342 345 351 350 339 327 320 316 314 316 317 315 317 319 316 313 312 318
202 201 200 197 195 194 194 196 198 197 198 198 197 199 199 199 201 200 200 200 199 200 201 203 204 204 203 200 199 200 202 200 198 199 199 202 205 209 218 222 238 256 281 306 331 336 341 344 334 327 328 339 353 356 352 344 337 337 338 339 341 341 343 344 339 333 335 329 332 341 330 321 315 309 306 307 310 313 311 310 308 305 304 309 315
199 198 196 195 194 192 191 194 196 196 195 194 194 194 194 194 195 195 196 198 198 198 201 203 204 205 206 203 201 201 202 202 199 200 202 204 207 211 215 219 231 241 265 289 324 335 342 338 326 324 331 345 355 358 355 342 336 336 334 335 340 342 344 345 340 332 331 323 320 318 319 322 322 316 308 307 309 309 307 305 303 302 303 308 312
195 195 193 193 193 191 191 194 195 194 193 192 192 192 191 191 192 194 195 196 196 197 199 202 204 205 206 206 205 203 202 202 202 202 203 205 207 210 212 217 224 232 252 273 316 332 335 325 318 324 332 342 348 356 356 343 341 341 335 333 338 346 351 349 346 33 315 305 310 312 321 334 330 322 312 310 311 310 309 309 308 306 306 309 312
191 192 192 192 192 192 193 195 194 194 195 194 194 194 195 194 194 196 196 195 196 197 199 201 203 204 206 207 207 206 205 205 205 204 204 206 206 208 211 214 220 224 239 254 295 315 319 313 313 322 331 338 338 347 354 351 349 340 329 326 335 352 5 25 118 328 321 318 319 321 330 329 324 322 317 315 315 313 313 313 312 311 311 314 315
190 191 192 191 191 193 196 196 195 195 196 197 197 197 198 198 199 199 198 197 197 200 201 201 201 203 205 207 207 208 208 207 207 206 206 206 205 208 210 213 219 220 227 239 257 287 302 302 305 315 324 330 332 337 348 355 344 332 327 319 339 353 354 58 340 322 326 332 340 331 324 325 326 324 320 317 316 315 315 314 314 315 316 317 316
189 189 190 190 191 194 196 197 197 197 197 198 198 199 198 198 201 202 200 199 198 199 200 200 200 202 204 206 209 210 210 208 208 208 207 206 205 207 211 213 216 218 223 231 244 268 285 284 286 300 315 321 324 326 329 339 342 341 344 309 348 355 323 357 327 323 334 345 327 326 325 326 327 321 317 314 314 316 316 316 316 317 317 316 315
189 190 190 191 194 196 198 198 197 198 198 198 198 198 197 196 197 197 197 197 197 195 195 196 197 200 204 206 209 210 210 209 209 209 207 206 205 206 210 213 213 218 222 227 241 257 264 264 272 285 297 305 309 307 307 323 337 342 334 295 343 5 288 335 327 319 325 320 320 328 330 326 322 316 313 312 312 314 314 316 317 317 317 315 314
192 193 192 194 196 197 198 198 198 198 199 199 198 197 196 195 193 190 189 190 190 193 196 196 196 200 205 206 208 209 210 209 208 209 207 205 206 207 209 211 212 216 219 227 236 246 254 253 263 274 276 284 293 294 296 310 321 317 290 259 262 260 278 321 326 293 303 310 319 329 323 319 315 310 310 309 307 308 310 314 314 314 314 313 313
196 194 194 196 197 198 198 198 198 199 199 198 198 198 197 197 197 195 194 193 193 197 201 200 200 202 205 206 207 208 209 209 207 208 207 206 206 207 209 209 211 213 217 226 234 241 249 251 258 267 271 270 271 280 290 303 311 311 299 274 271 271 281 296 291 290 307 299 311 318 312 310 310 307 304 303 304 304 305 308 310 311 311 310 309
195 193 194 196 197 198 198 198 198 199 199 199 199 199 200 199 200 200 200 200 201 201 201 201 203 203 203 205 205 206 208 209 209 208 207 207 206 207 208 208 209 212 218 226 232 240 245 250 258 263 266 265 264 273 282 291 294 294 297 294 288 284 283 283 281 286 300 295 304 308 301 300 300 296 298 301 300 298 300 305 307 308 307 307 308
194 194 196 196 197 198 198 198 199 199 200 200 201 202 202 202 201 201 203 204 205 204 201 200 202 201 201 202 203 204 206 208 209 209 208 207 207 208 209 209 210 212 217 224 229 237 245 250 256 261 262 261 262 267 273 278 277 278 287 292 291 289 286 283 284 284 277 286 299 305 303 301 291 286 294 296 293 292 297 301 302 303 304 306 309
196 196 196 196 197 197 197 198 200 201 201 202 202 203 203 203 203 203 204 204 203 202 200 198 199 199 199 200 201 203 204 205 207 208 208 207 206 208 209 210 211 213 217 222 227 234 243 251 255 258 257 258 261 263 267 271 271 272 278 281 280 282 286 287 287 291 287 276 280 292 301 301 294 291 292 290 290 292 294 295 298 301 303 305 307
196 197 196 196 196 197 198 199 201 202 202 202 203 203 203 204 205 205 205 203 200 198 197 196 197 197 197 198 200 202 203 204 204 205 206 206 206 207 209 210 211 214 218 220 226 232 239 247 250 252 254 256 262 266 268 269 268 270 272 270 268 269 272 275 279 290 292 277 282 294 297 299 297 293 291 292 291 291 292 292 294 297 302 305 308